User: anonymous
Location: Unspecified
(0.0000°N, 0.0000°E)
Time: 03:39:39
(UTC+02:00)
Language:

Cosmos 1315 Rocket - Orbit

View from above orbital plane
View from above orbital plane
View from above satellite
View from above satellite

Ground track
Ground track

The orbit data is extracted from the following two-line orbital elements,

1 12904U 81103B   14203.11411487  .00000166  00000-0  10726-4 0  5434
2 12904 081.1767 045.6901 0028824 313.3160 046.5658 15.02574988333297
Epoch (UTC): 22 July 2014 02:44:19
Eccentricity: 0.0028824
inclination: 81.1767°
perigee height: 539 km
apogee height: 579 km
right ascension of ascending node: 45.6901°
argument of perigee: 313.3160°
revolutions per day: 15.02574988
mean anomaly at epoch: 46.5658°
orbit number at epoch: 33329

The dashed part of the orbit path shows where the satellite is in the earth's shadow,  

DLR